Regional Weather Roundup
Issued by NWS

Home | Current Version | Previous Version | Graphics & Text | Print | Product List | Glossary On
Versions: 1 2 3 4 5 6 7 8 9 10 11 12 13 14 15 16 17 18 19 20 21 22 23 24 25 26 27 28 29 30 31 32 33 34 35 36 37 38 39 40 41 42 43 44 45 46 47 48 49 50
000
ASUS45 KTFX 190004
RWRMT
MONTANA HOURLY WEATHER ROUNDUP
NATIONAL WEATHER SERVICE GREAT FALLS MT
604 PM MDT FRI APR 18 2014

NOTE: "FAIR" INDICATES FEW OR NO CLOUDS BELOW 12000 FEET WITH NO
SIGNIFICANT WEATHER AND/OR OBSTRUCTIONS TO VISIBILITY.

* THESE STATIONS ARE NOT UNDER NWS QUALITY CONTROL. THEY DO NOT
   REPORT WEATHER SUCH AS PRECIPITATION OR FOG.

MTZ001>007-043-190100-
WEST OF THE DIVIDE
CITY           SKY/WX    TMP DP  RH WIND       PRES   REMARKS
KALISPELL      CLOUDY    46  27  48 W14G28    29.88R
MISSOULA       CLOUDY    48  19  32 W16       29.96R
BUTTE          PTCLDY    43  10  26 W23G32    29.92R
MULLAN PASS    CLOUDY    28  23  81 VRB7G21   29.94R WCI  21
* ESSEX        N/A       35  30  82 NW6G12     N/A   WCI  30
* LINCOLN      N/A       42  17  36 SW9G25     N/A
* LOOKOUT PASS N/A       36  25  64 SE9G16     N/A   WCI  29
* POLSON       N/A       46  21  37 SW4G11     N/A
* SEELEY LAKE  N/A       40  21  47 N12G23     N/A   WCI  33
* THOMP F APT  PTCLDY    57  -4   8 W11G33     N/A
$$

MTZ008-052>055-190100-
SOUTHWEST MONTANA
CITY           SKY/WX    TMP DP  RH WIND       PRES   REMARKS
BOZEMAN        PTCLDY    50   9  19 NW38G52   29.83R
DILLON         CLEAR     48  12  23 NW24G37   29.88R
W YELLOWSTONE  N/A       38  36  93 S5G16      N/A   WCI  34
* THREE FORKS  PTCLDY    52  12  20 W20G32     N/A
* BOULDER HILL N/A       41   6  23 SW16G27    N/A
* MONIDA PASS  N/A       50  -1  12 W27G32     N/A
* RAYNOLDS PAS N/A       43  29  58 S12G30     N/A
* WHITEHALL    N/A       53   8  16 W17G31     N/A
* WISE RIVER   N/A       42  18  38 NW20G40    N/A
$$

MTZ009>010-012-014-046-048-049-054-190100-
EAST SLOPES AND CENTRAL MONTANA
CITY           SKY/WX    TMP DP  RH WIND       PRES   REMARKS
CUT BANK       MOCLDY    45  21  38 W43G51    29.68R
GREAT FALLS    MOCLDY    48  18  30 SW32G43   29.75R
HELENA         PTCLDY    52  10  18 W22G41    29.83F
MALMSTROM AFB  MOCLDY    50  12  22 SW23G38   29.73R
* CONRAD       CLOUDY    46  18  33 N/A        N/A
* DEARBORN     N/A       48  18  30 S27G37     N/A
* EAST GLACIER N/A       33  26  75 W33G42     N/A   WCI  18
* MONARCH      N/A       39   8  27 W23G31     N/A   WCI  28
* PENDROY      N/A       42  17  36 W37G48     N/A
* ROGERS PASS  N/A       39  12  33 SE11G32    N/A   WCI  32
* SAINT MARY   N/A       35  26  70 SW13G32    N/A   WCI  26
* SWEET GRASS  N/A       45  22  40 S34G46     N/A
$$

MTZ011-013-016-021-035-040-045-047-050-051-190100-
NORTH CENTRAL MONTANA
CITY           SKY/WX    TMP DP  RH WIND       PRES   REMARKS
HAVRE          CLOUDY    55  16  21 W30G44    29.66R
LEWISTOWN      MOCLDY    46  21  37 W24G32    29.75F
* CHESTER      N/A       50  16  26 W24G36     N/A
* DENTON       N/A       52  14  22 W29G42     N/A
* GEYSER       N/A       46  14  27 W24G34     N/A
* JUDITH GAP   N/A       46  16  30 W28G39     N/A
* LOMA         N/A       53  11  18 SW38G50    N/A
$$

MTZ017>020-022>027-061-062-190100-
NORTHEAST MONTANA
CITY           SKY/WX    TMP DP  RH WIND       PRES   REMARKS
GLASGOW        PTCLDY    52  46  80 SE14      29.61F
GLENDIVE       CLOUDY    48  45  89 NE7       29.67F
JORDAN         SQUALL    50  37  61 W36G55    29.70R
SIDNEY         CLOUDY    48  45  89 NW18G24   29.69S
WOLF POINT     CLOUDY    52  46  80 NW5       29.66R
* BEAVER HILL  N/A       48  44  86 NW22G31    N/A
* CIRCLE       N/A       51  48  90 SE7        N/A
* LINDSAY DVD  N/A       47  44  89 NE4        N/A
* NAVAJO       N/A       42  40  93 E4         N/A
* SACO         N/A       54  39  57 N2G17      N/A
$$

MTZ028>042-056>058-190100-
SOUTHCENTRAL AND SOUTHEAST MONTANA
CITY           SKY/WX    TMP DP  RH WIND       PRES   REMARKS
BAKER          LGT RAIN  54  39  57 NW30G40   29.69R
BILLINGS       PTCLDY    50  39  66 NW26      29.72R
LIVINGSTON     CLOUDY    52  25  35 W23G31    29.79S
MILES CITY     CLOUDY    55  41  59 CALM      29.65F
* LAUREL APT   PTCLDY    63  32  31 W24G31     N/A
* ROUNDUP APT  MOCLDY    48  30  50 W22G28     N/A
* HYSHAM       N/A       57  35  44 W7         N/A
* LAME DEER    N/A       50  38  64 N7G12      N/A
* REED POINT   N/A       48  34  59 W17G26     N/A
* ROSCOE HILL  N/A       50  22  33 W9G16      N/A
$$

REGIONAL REPORTS...DAKOTAS
CITY           SKY/WX    TMP DP  RH WIND       PRES   REMARKS
WILLISTON      CLOUDY    55  36  49 S8        29.66S
DICKINSON      MOCLDY    61  37  41 SE12      29.60F
CROSBY         FOG       45  43  93 SE6       29.70R
TIOGA          CLOUDY    48  39  71 SE16G22   29.70F
WATFORD CITY   CLOUDY    54  37  53 E3        29.62F
BISMARCK       CLOUDY    55  37  51 E23G31    29.67F
GRAND FORKS    CLOUDY    48  30  50 SE23G32   30.01F
FARGO          CLOUDY    48  27  44 SE22G35   30.01F
RAPID CITY     CLOUDY    75  39  27 S15G21    29.60F
$$

REGIONAL REPORTS...WYOMING/IDAHO/WASHINGTON
CITY           SKY/WX    TMP DP  RH WIND       PRES   REMARKS
GILLETTE       MOCLDY    59  39  48 N7        29.70S
SHERIDAN       CLOUDY    59  41  51 N14       29.68R
CODY           MOCLDY    57  25  29 W15G24    29.74R
YELLOWSTONE LA MOCLDY    37  28  70 W8        29.91S WCI  31
SALMON         PTCLDY    54  18  24 N14G20    29.91R
MULLAN PASS    CLOUDY    28  23  81 VRB7G21   29.94S WCI  21
SPOKANE        PTCLDY    54  21  27 SW15G24   29.96S
$$

REGIONAL REPORTS...ALBERTA
CITY           SKY/WX    TMP DP  RH WIND       PRES   REMARKS
EDMONTON       CLOUDY    34  28  79 N10       29.76R WCI  26
$$

REGIONAL REPORTS...SASKATCHEWAN
CITY           SKY/WX    TMP DP  RH WIND       PRES   REMARKS
SWIFT CURRENT  LGT RAIN  43  39  86 N13G18    29.55F

$$




USA.gov is the U.S. government's official web portal to all federal, state and local government web resources and services.